Pagrindinis puslapis
METAR-TAF:

METAR-TAF

Oro uostai :

Brownwood, Teksasas, Jungtinės Amerikos Valstijos

platuma: 31-48N, ilguma: 098-57W, Aukštis: 422 m

Dabartinis oras

Ataskaita buvo paskelbta 36 minutes, ne 08:35 UTC
Vėjas 4 kt iš Pietų
Temperatūra 25°C
Drėgmė 83%
Slėgis 1013 hPa
Matomumas: 16.1 km
Giedras dangus

METAR: KBWD 020835Z AUTO 17004KT 10SM CLR 25/22 A2991 RMK AO1

Laikas: 04:11 (09:11 UTC)


TAF: trūkstamas

Orai ataskaitas ir orų prognozės (METAR, TAF).

turimą stotys yra geltonos ir raudonos taškus žemėlapyje.

Perkelti pele per norėdami pamatyti stoties vardą.

Tada spustelėkite, norėdami matyti oro stebėjimo ir prognozės.

Norėdami pakeisti žemėlapį: spustelėkite ant žalios mygtukų su juodo kryžiaus žemyn,; žalią mygtuką su brūkšneliu, jei norite nutolinti; arba žalių rodyklių gretimoms žemėlapius.


METAR-TAF: